CAPE
0 0 0 0 0 0 0 0 0 0 0 0 0 0 0 0 0 0 0 0 1 0 0 4 4 9 15 12 9 28 59 138 40 91 131 163 228 203 246 455 536 496 682 628 514 410 474 554 562 595 570 593 541 941 1032 1115 1215 1158 1120 1338 1434 1641 1738 1724 2133 1859 1869 1847 1958 1514 1706 1854 1956 1704 1839 2286 1300 1283 1016 2340 2677 2905 2725 2973 2832 2946
0 0 0 0 0 0 0 0 0 0 0 0 0 0 0 0 0 0 0 0 1 1 0 0 2 3 3 8 18 10 55 65 98 148 137 319 271 210 346 368 462 512 697 681 510 444 427 499 484 575 552 605 566 666 1061 1045 1262 1217 1370 1348 1423 1579 1736 1752 1973 1837 1625 1814 1777 1466 1655 1750 1984 2019 1878 1856 1284 1088 1212 2723 2768 2949 2700 2938 2909 3046
0 0 0 0 0 0 0 0 0 0 0 0 0 0 0 0 0 0 0 0 2 0 0 0 0 0 2 4 13 12 78 56 110 104 150 345 242 301 385 632 734 747 690 660 532 378 480 491 520 435 465 473 593 630 1067 1005 1203 1290 1262 1485 1492 1427 1743 1720 1839 1805 1574 1743 1742 1667 1728 1761 1784 1937 1898 1668 1409 989 1190 2706 2870 2933 2761 2868 2915 3104
0 0 0 0 0 0 0 0 0 0 0 0 0 0 0 0 0 0 0 0 0 2 0 0 0 0 0 5 2 1 20 60 64 277 265 319 252 405 476 784 883 774 811 750 663 519 371 524 524 468 436 442 620 760 1010 958 1175 1320 1144 1362 1508 1439 1694 1605 1754 1625 1556 1577 1660 1709 1726 1694 1723 1724 1792 1530 1400 1304 1545 2671 2775 2885 2824 2925 2901 3031
0 0 0 0 0 0 0 0 0 0 0 0 0 0 0 0 0 0 0 0 0 0 0 2 3 2 0 5 4 9 11 19 40 235 367 301 291 548 468 725 975 916 859 812 734 572 406 442 417 537 490 451 872 854 1018 1064 1060 1404 1224 1186 1510 1425 1603 1585 1656 1498 1389 1591 1616 1717 1870 1552 1632 1557 1556 1382 1349 954 1758 2273 2624 2801 2934 2796 2893 2906
0 0 0 0 0 0 0 0 0 0 0 0 0 0 0 0 0 0 0 6 3 14 0 3 8 0 3 2 25 13 9 5 54 150 424 270 283 559 623 882 1046 1060 1033 954 812 690 560 494 492 475 555 580 955 930 1116 1092 1034 1308 1264 1232 1534 1306 1496 1426 1474 1362 1481 1520 1523 1619 1824 1629 1648 1299 1337 1229 1462 1028 1503 1716 2375 2748 2852 2852 2784 2787
0 0 0 0 0 0 0 0 0 0 0 0 0 0 0 0 0 0 0 0 0 3 8 2 2 5 0 1 22 22 6 0 46 41 417 364 460 567 591 912 1082 1186 1129 1031 900 691 645 584 477 652 627 646 981 1017 1109 1162 1073 1241 1316 1180 1633 1264 1436 1311 1410 1180 1552 1486 1569 1533 1708 1585 1413 1320 1169 1120 1508 1196 1202 1363 2044 2601 2720 2663 2724 2703
0 0 0 0 0 0 0 0 0 0 0 0 0 0 0 0 0 0 0 0 0 0 2 1 0 3 1 0 0 0 3 4 131 48 288 504 788 724 721 779 948 1196 1242 1073 991 804 776 625 526 798 694 757 824 1073 1142 1226 1154 1283 1439 1210 1606 1330 1468 1338 1357 1257 1338 1553 1598 1513 1646 1552 1090 1668 1180 1031 1247 1578 1395 1121 1441 2614 2513 2581 2527 2678
0 0 0 0 0 0 0 0 0 0 0 0 0 0 0 0 0 0 0 0 0 0 0 2 4 0 0 4 2 0 0 0 160 168 259 646 919 976 949 948 908 1038 1249 1237 1132 1054 898 827 679 863 846 876 976 1213 1209 1302 1319 1329 1601 1373 1509 1528 1427 1333 1328 1310 1235 1550 1529 1514 1526 1521 1106 1275 2006 1443 1244 1819 1822 1101 1645 2335 2346 2635 2443 2595
0 0 0 0 0 0 0 0 0 0 0 0 0 0 0 0 0 0 0 0 0 0 0 0 2 0 0 0 0 0 0 0 173 175 308 680 934 1013 1090 1076 973 1012 1203 1178 1199 1088 949 853 757 937 994 972 1101 1289 1419 1392 1537 1452 1733 1553 1453 1758 1367 1390 1325 1322 1249 1471 1563 1563 1382 1473 1498 1382 2132 1977 1383 1624 2283 1292 1533 2209 2316 2587 2554 2514
0 0 0 0 0 0 0 0 0 0 0 0 0 0 0 0 0 0 0 0 0 0 0 0 0 1 5 0 0 0 0 0 15 162 384 686 717 1064 1135 1127 1067 1046 1211 1230 1157 1100 962 930 926 977 1161 1100 1124 1330 1566 1557 1771 1662 1802 1731 1530 1776 1524 1545 1311 1270 1305 1423 1568 1590 1380 1395 1599 1575 1721 2407 1728 1632 2579 1574 1456 2284 2450 2513 2613 2487
0 0 0 0 0 0 0 0 0 0 0 0 0 0 0 0 0 0 0 0 0 0 0 0 0 0 0 0 0 0 0 0 0 302 397 686 1028 1179 1116 1149 1054 966 1120 1218 1193 1120 1014 1055 1012 852 1258 1181 1223 1475 1685 1683 1964 1895 1874 1886 1670 1761 1757 1684 1378 1272 1357 1422 1559 1627 1502 1376 1655 1743 1581 2275 2230 1794 2099 2128 1412 2347 2506 2541 2545 2481
0 0 0 0 0 0 0 0 0 0 0 0 0 0 0 0 0 0 0 0 0 0 0 0 0 0 0 0 0 0 0 0 0 34 556 724 946 1049 1040 1067 1026 884 991 1151 1157 1133 1080 1134 1057 996 1232 1368 1405 1621 1729 1829 2033 2054 2010 1985 1823 1803 1896 1835 1604 1287 1398 1472 1549 1671 1635 1470 1748 1826 1645 1944 2440 2019 1912 2392 1933 2196 2499 2592 2516 2472
0 0 0 0 0 0 0 0 0 0 0 0 0 0 0 0 0 0 0 0 0 0 0 0 0 0 0 0 0 0 0 0 0 0 559 654 707 995 915 1053 1050 935 1045 1102 1071 1252 1305 1228 1161 1112 1332 1505 1536 1796 1803 1893 2120 2150 2099 2071 1940 1874 1966 1973 1928 1421 1431 1500 1607 1674 1730 1610 1862 1960 1806 1861 2311 2446 2062 2167 2412 1802 2687 2512 2544 2521
0 0 0 0 0 0 0 0 0 0 0 0 0 0 0 0 0 0 0 0 0 0 0 0 0 0 0 0 0 0 0 0 0 0 0 571 628 821 872 966 911 856 937 1037 1044 1134 1359 1354 1240 1142 1242 1587 1664 1870 1977 1960 2151 2197 2179 2125 2074 1986 2028 2036 2177 1728 1547 1566 1695 1702 1768 1736 1861 2057 2053 2000 2188 2656 2350 2279 2276 2305 2299 2627 2591 2584
0 0 0 0 0 0 0 0 0 0 0 0 0 0 0 0 0 0 0 0 0 0 0 0 0 0 0 0 0 0 0 0 0 0 0 562 617 666 669 828 903 887 950 1060 1162 1174 1246 1356 1269 1153 1099 1441 1824 1917 2145 2100 2164 2229 2229 2186 2156 2100 2123 2085 2288 2116 1736 1697 1760 1832 1821 1836 1902 2152 2194 2213 2282 2582 2544 2364 2118 2426 2381 2603 2754 2766
0 0 0 0 0 0 0 0 0 0 0 0 0 0 0 0 0 0 0 0 0 0 0 0 0 0 0 0 0 0 0 0 0 0 32 548 480 308 574 961 1092 994 983 1041 1120 1188 1258 1248 1246 1165 1081 1362 1855 1868 2184 2259 2254 2301 2272 2244 2248 2170 2206 2158 2204 2320 2010 1841 1846 1945 1888 1893 1951 2075 2218 2263 2342 2487 2686 2459 2155 2038 2572 2491 2665 3028
0 0 0 0 0 0 0 0 0 0 0 0 0 0 0 0 0 0 0 0 0 0 0 0 0 0 0 0 0 0 0 0 0 0 0 288 229 123 689 966 973 878 830 892 1116 1219 1257 1196 1125 1107 1112 1250 1774 1919 2060 2337 2328 2383 2377 2308 2313 2276 2290 2257 2200 2316 2244 1997 1935 2044 2021 1936 1968 2011 2150 2178 2286 2289 2786 2769 2462 2168 2264 2731 2721 2724
0 0 0 0 0 0 0 0 0 0 0 0 0 0 0 0 0 0 0 0 0 0 0 0 0 0 0 0 0 0 0 0 0 0 0 51 122 69 365 807 905 787 753 765 1039 1193 1346 1228 1070 1066 1248 1502 1604 1825 2004 2298 2381 2427 2501 2470 2370 2332 2350 2350 2295 2281 2355 2194 2083 2145 2205 2103 2025 2018 2048 2136 2170 2150 2302 3022 2921 2672 2465 2615 2915 2852
0 0 0 0 0 0 0 0 0 0 0 0 0 0 0 0 0 0 0 0 0 0 0 0 0 0 0 0 0 0 0 0 0 0 0 8 125 95 200 390 599 753 847 945 1066 1174 1398 1446 1317 1356 1426 1738 1935 1930 2102 2364 2414 2550 2653 2743 2591 2456 2408 2430 2402 2395 2385 2345 2238 2232 2304 2283 2181 2119 2050 2076 2113 2093 1955 2321 3182 3125 3021 2831 2907 3036
0 0 0 0 0 0 0 0 0 0 0 0 0 0 0 0 0 0 0 0 0 0 0 0 0 0 0 0 0 0 0 0 0 0 0 0 78 30 380 494 691 756 931 1007 1047 1052 1125 1290 1400 1521 1621 1734 1962 2114 2251 2436 2445 2563 2746 2900 2857 2717 2569 2509 2472 2452 2474 2492 2431 2348 2327 2355 2323 2299 2203 2101 2038 2047 1927 1855 2363 3197 3283 3176 2982 2978
0 0 0 0 0 2 0 0 0 0 0 0 0 0 0 0 0 0 0 0 0 0 0 0 0 0 0 0 0 0 0 0 0 0 0 0 162 108 222 752 847 721 840 1002 1045 1105 1188 1314 1503 1507 1582 2050 2372 2319 2350 2474 2509 2588 2764 2908 3058 2954 2787 2614 2534 2488 2531 2587 2564 2473 2407 2360 2354 2358 2328 2187 2044 2048 1978 1819 1810 2252 2961 3291 3177 2869
0 0 0 0 0 0 0 0 0 0 0 0 0 0 0 0 0 0 0 0 0 0 0 0 0 0 0 0 0 0 0 0 0 0 0 0 169 354 318 234 925 660 691 816 892 945 1138 1280 1524 1820 1723 1902 2730 2666 2547 2597 2622 2670 2809 2940 3113 3116 2998 2816 2662 2562 2567 2615 2640 2586 2503 2424 2338 2311 2329 2255 2128 2086 2047 1884 1748 1769 2084 2536 3089 3055
0 0 0 0 0 0 0 0 0 0 0 0 0 0 0 0 0 0 0 0 0 0 0 0 0 0 0 0 0 0 0 0 0 0 0 0 403 578 438 254 969 877 816 845 850 854 935 1083 1340 1861 2214 2328 2745 2887 2774 2754 2747 2699 2831 2990 3156 3226 3166 3038 2878 2722 2646 2666 2697 2646 2560 2480 2361 2282 2261 2204 2132 2125 2133 1993 1751 1681 1836 1941 2264 2958
0 0 0 0 2 0 0 0 0 0 0 0 0 0 0 0 0 0 0 0 0 0 0 0 0 0 0 14 0 0 0 0 0 0 0 0 397 555 556 562 806 933 885 834 867 834 877 989 1220 1370 1976 2518 2972 3114 2968 2875 2840 2811 2785 2998 3266 3423 3448 3314 3169 2967 2806 2789 2787 2718 2606 2495 2398 2294 2209 2169 2073 2051 2099 2089 1876 1673 1727 1855 1916 2328
0 0 0 0 3 0 0 3 2 0 0 0 0 0 0 0 0 0 0 0 0 0 0 0 0 0 0 30 0 0 0 0 0 0 0 0 390 610 543 598 655 903 770 740 802 755 875 1280 1662 2254 2320 2626 3036 3270 3176 3058 2975 2946 2881 2921 3278 3638 3726 3694 3539 3276 2981 2874 2851 2791 2684 2595 2450 2313 2236 2145 2081 2047 2029 1979 1967 1823 1720 1859 2017 2180
0 0 0 0 0 0 26 137 135 0 0 0 0 0 0 0 0 0 0 0 0 0 0 0 0 0 0 0 0 0 0 0 0 0 0 0 0 774 706 744 673 845 793 674 793 930 1386 2127 2412 2985 3122 3130 3169 3320 3403 3265 3160 3069 2972 2920 3163 3647 3801 3823 3773 3574 3227 2977 2891 2853 2753 2611 2498 2323 2214 2162 2049 1971 1983 1900 1814 1935 1894 1851 2023 2199
0 0 0 0 0 0 0 3 17 16 0 0 0 0 0 0 0 0 0 0 0 0 0 0 89 0 0 0 2 0 0 0 0 0 583 858 1311 1423 823 849 1080 723 1026 811 844 1339 1900 2342 2756 3225 3340 3326 3269 3327 3547 3464 3334 3210 3064 2959 3131 3601 3887 3890 3807 3726 3514 3183 2958 2861 2797 2651 2498 2370 2221 2122 2011 1860 1804 1778 1639 1703 1992 1983 1940 2033
0 0 0 0 0 0 3 24 18 5 23 18 0 0 0 0 0 0 0 0 0 0 0 90 77 17 0 0 0 35 0 0 0 489 835 893 1133 1222 731 809 841 742 852 938 925 1393 1941 2257 2553 3076 3496 3478 3406 3440 3650 3617 3489 3334 3213 3096 3287 3520 3857 3993 3926 3805 3702 3489 3167 2910 2785 2665 2512 2394 2340 2224 2006 1855 1822 1771 1621 1571 1776 2039 2004 1939
0 0 0 0 0 0 9 15 10 0 2 2 0 0 0 0 0 0 0 0 0 0 24 723 52 159 0 0 0 0 0 0 246 624 664 752 997 1146 941 846 818 832 1779 1010 847 1128 1508 1848 2263 2892 3515 3591 3538 3516 3716 3785 3679 3520 3489 3544 3456 3461 3659 3930 3997 3908 3797 3658 3437 3118 2852 2697 2517 2395 2405 2447 2267 2074 1988 1948 1806 1632 1731 2029 2003 1910
0 0 0 0 0 3 16 20 12 6 0 0 0 0 0 0 0 0 0 0 0 0 0 814 588 75 0 0 0 23 5 0 0 1 15 474 874 978 975 967 1373 2404 2860 2104 1566 1887 1919 2363 2842 3209 3557 3646 3635 3571 3707 3901 3862 3788 3768 3784 3678 3536 3600 3850 3984 3990 3897 3807 3652 3389 3028 2814 2657 2480 2422 2508 2508 2361 2200 2078 2003 1862 1734 2028 2307 2187
0 0 0 0 0 3 21 19 4 1 0 0 0 0 0 0 0 0 0 0 0 0 0 190 0 98 0 0 12 6 0 21 37 0 0 0 316 652 676 1032 1193 1920 2999 3434 3900 4350 4535 4497 4327 4005 3922 3776 3677 3600 3624 3868 4015 3963 3922 3951 3923 3720 3642 3829 3976 3988 3908 3842 3857 3767 3410 3028 2843 2718 2519 2440 2536 2542 2392 2208 2102 2010 1904 1919 2392 2566
2 0 0 0 0 4 22 21 19 2 0 0 0 0 0 0 0 0 0 0 0 7 0 5 0 1 0 0 1 0 3 0 0 0 2 1 72 44 138 653 888 992 1928 2846 3529 3978 4427 4736 4810 4604 4342 4036 3786 3633 3567 3752 4010 4067 3982 4013 4075 3920 3773 3760 3967 4029 3955 3837 3914 3985 3824 3504 3140 2997 2786 2544 2516 2590 2547 2345 2200 2159 2067 2021 2200 2700
4 2 0 0 0 2 18 20 12 4 0 0 0 0 0 0 0 2 0 0 0 0 0 0 87 299 32 0 0 0 0 0 0 0 0 8 0 0 0 380 925 1278 1887 2374 2816 2998 3393 3962 4262 4428 4546 4426 4274 4092 3790 3716 3909 4064 4012 3997 4098 4111 3962 3762 3911 4118 4060 3968 3963 4052 4007 3794 3506 3209 3156 2903 2662 2642 2692 2532 2312 2235 2257 2213 2158 2426
7 5 0 0 0 2 12 16 41 0 0 0 0 0 0 0 0 0 0 0 0 0 2 17 137 135 310 410 224 2 0 9 16 2 0 84 20 22 0 0 411 1552 1960 2084 1972 2816 2321 2710 3660 3976 4172 4232 4249 4177 4058 3945 3736 3785 4000 3994 4003 4070 4053 3939 3790 4164 4216 4094 4071 4114 4115 3985 3732 3461 3406 3314 3067 2862 2859 2823 2584 2343 2286 2318 2296 2262
9 8 4 0 0 0 4 16 11 1 0 0 0 0 1 8 1 0 0 1 0 20 0 6 3 0 39 0 0 0 0 0 0 0 0 1611 2336 2303 2721 2847 716 0 425 2972 4266 4028 3670 3952 4197 4465 4309 3873 4047 3808 3687 3637 3616 3878 3751 3889 3939 3946 3949 3955 3874 3931 4498 4313 4228 4270 4274 4181 3998 3808 3708 3649 3484 3247 3102 3068 2942 2654 2406 2323 2340 2340
12 7 6 5 0 0 10 0 12 0 0 0 0 0 2 3 0 10 16 316 549 946 502 291 64 28 9 1 0 0 0 0 0 0 1349 2847 2644 2590 3131 3565 3754 4198 4441 4444 4665 4435 3864 3390 3239 3684 3226 2795 3060 3232 3402 3304 3200 3710 3859 3793 3998 3972 3847 3819 3798 3749 4591 4626 4433 4453 4453 4382 4278 4125 4042 3980 3882 3640 3381 3269 3236 3024 2690 2437 2349 2416
11 14 13 4 6 0 7 3 7 0 0 2 13 6 3 2 4 21 34 325 622 1038 1118 257 122 84 2 4 0 0 0 0 906 2204 3093 3360 3301 3124 3042 3179 3247 3305 2963 2838 2982 3298 3831 3805 3842 4285 4102 3778 3705 3651 3440 3642 3329 3328 3842 3787 3692 3997 3944 3767 3704 3643 3914 4792 4680 4641 4653 4606 4527 4429 4330 4274 4199 4042 3759 3527 3466 3417 3095 2719 2473 2440
7 12 21 9 13 2 7 4 17 1 29 0 0 0 1 2 5 24 280 523 784 917 1009 1048 936 924 901 215 0 0 436 910 1109 1767 2800 3233 3327 3248 3174 3009 2658 2346 2579 3365 3254 2937 3210 3620 4272 4026 3596 2553 2722 2645 2692 3692 3870 3704 3570 3776 3630 3676 3964 3901 3718 3602 3535 4295 4848 4812 4916 4869 4799 4698 4599 4537 4460 4376 4218 3931 3794 3766 3681 3247 2813 2582
12 14 13 16 9 5 6 0 36 18 3 0 0 3 0 3 0 20 194 552 790 958 943 856 692 696 707 741 625 748 847 1044 1102 1557 1912 2450 2972 2958 2958 2842 2608 2386 2331 2827 3729 3413 3138 3540 4087 4249 4023 4554 4723 4857 4837 3755 3461 4415 4318 3771 3638 3537 3586 3773 3789 3647 3532 3868 4789 4918 5054 5126 5061 4967 4858 4802 4742 4676 4562 4393 4232 4249 4189 3960 3482 3092
12 11 11 17 9 14 7 3 11 7 4 0 2 0 2 17 19 129 219 531 818 887 874 796 569 451 477 530 610 734 943 963 1069 1336 1605 1977 2597 2998 2964 2745 2571 2428 2392 2566 3394 3777 3032 3144 3791 4437 4532 4663 4929 4108 4958 4867 4816 4197 4540 4745 3991 3602 3436 3408 3608 3757 3702 3940 4802 4898 5044 5196 5250 5203 5104 5044 5037 4970 4839 4706 4617 4598 4597 4454 4144 3754
10 10 10 6 13 9 3 10 13 20 9 0 0 0 16 6 32 210 305 465 717 834 779 718 559 395 424 370 344 468 790 873 990 1104 1311 1499 2341 2874 2692 2569 2472 2414 2321 2206 2699 3047 2700 3101 3552 3800 4363 4806 4552 4836 4873 4811 4405 4665 4991 4681 4623 4028 3501 3401 3722 3898 3838 4097 4853 4896 4960 5138 5311 5320 5253 5220 5233 5225 5093 4968 4840 4781 4762 4705 4578 4307
4 8 16 10 12 5 1 11 14 42 5 0 0 0 0 21 152 11 301 478 556 641 767 595 531 370 304 412 440 446 519 714 906 919 888 995 1305 1757 2435 2412 2341 2266 2239 2189 2018 2494 2626 2761 3762 4212 4276 4122 3836 4304 4822 4957 4809 4952 4937 4859 4881 4712 4083 4084 4100 4077 3994 4084 4799 4935 4932 5041 5297 5396 5349 5290 5288 5282 5248 5204 5074 4919 4813 4798 4733 4580
18 0 9 15 12 9 5 8 24 5 2 0 0 3 6 0 4 62 146 468 496 483 488 561 504 216 13 192 272 363 447 459 596 696 949 1048 1222 1660 1983 2092 2086 2191 2315 2513 2836 2770 2982 2991 3468 3162 3752 4408 4160 4244 4510 4851 4801 4640 4866 4887 5260 5283 4762 5157 4564 4316 4103 4052 4512 4951 4960 5055 5285 5414 5372 5319 5308 5281 5262 5288 5207 5055 4890 4850 4820 4718
28 2 90 8 14 5 6 3 1 0 0 0 0 0 0 0 47 53 200 366 386 367 327 367 473 409 0 46 217 249 395 606 849 986 1115 1249 1361 1548 1830 1828 2152 2269 2324 2588 3176 3558 3211 3152 3278 3382 3733 3676 3693 4294 4764 5271 5123 4696 4591 5169 5963 5336 5206 5875 4996 4567 4222 4078 4388 4895 5066 5139 5361 5422 5350 5286 5304 5294 5257 5237 5195 5102 4952 4897 4879 4855
41 2 58 0 2 0 0 0 0 1 0 0 0 0 0 1 8 1 180 264 0 288 280 248 271 341 322 0 14 184 393 620 830 916 1019 1080 1086 1198 1431 1949 2195 2237 2727 3039 3195 3287 3243 3232 3447 3834 3801 3720 3514 4108 4982 4778 4590 4766 5350 5867 5738 5516 5060 6056 5480 4847 4507 4357 4520 4955 5273 5344 5403 5430 5309 5263 5310 5342 5312 5233 5173 5057 5052 5040 4988 4988
0 3 0 0 0 0 1 1 1 13 0 0 0 0 0 1 6 0 29 180 164 159 209 204 137 136 162 204 119 0 221 622 638 528 644 791 988 1170 1549 2100 2266 2375 2837 2949 3339 3766 3345 3188 3594 3639 3626 3594 3311 3556 3892 4478 4787 4805 4859 4949 5225 4848 4680 5803 5761 5088 4884 4733 4761 5037 5289 5358 5388 5419 5323 5212 5364 5465 5452 5334 5273 5162 5196 5149 5075 5088
0 0 0 0 0 0 0 0 0 8 0 3 0 0 0 0 2 1 0 28 156 122 170 174 108 40 0 0 0 0 18 292 553 525 605 694 868 1047 1483 1830 2115 2248 2867 3147 3295 3321 3340 3081 3341 3079 3144 3124 3043 3122 3716 4290 4641 4760 4744 4836 4890 5454 6104 5740 5508 5302 5102 4997 4952 4988 5117 5221 5990 5553 5301 5343 5436 5563 5472 5349 5309 5193 5178 5250 5186 5119
2 0 0 0 0 0 0 0 0 0 0 9 2 0 0 0 3 8 3 1 11 147 121 145 134 86 0 0 0 0 0 19 215 532 552 685 887 1110 1631 1833 1990 2146 2523 2907 2965 3460 2733 3162 3098 3094 2942 2744 2811 3112 3413 3791 4312 4521 4849 5406 5484 6356 5477 5663 5474 5432 5258 5036 5067 4940 4943 4952 5248 5353 5230 5205 5172 5207 5246 5340 5260 5073 5026 5118 5244 5157
0 0 0 0 0 0 0 0 2 0 13 18 4 0 0 0 0 4 2 1 4 27 27 37 134 90 38 0 0 0 0 0 22 168 470 762 957 1407 1663 1772 1893 2174 2660 2880 2801 2809 2759 3208 2823 2696 2635 2588 2653 3023 3360 3578 3704 4076 4415 5027 5514 5921 4696 5073 5505 5493 5504 5313 5190 5017 5072 4940 4822 5064 5047 5008 4918 4945 5012 5080 5114 5044 4866 4891 5012 5030
0 0 0 0 0 0 0 0 0 0 0 4 0 0 0 0 0 3 17 10 0 2 14 26 43 0 0 0 0 0 0 0 0 65 369 711 942 1200 1626 1755 1886 2072 2574 2832 2809 2775 2464 2450 2527 2460 2718 2603 2440 2498 2936 3349 3464 3770 4475 5118 5277 5610 5311 4754 5030 5324 5412 5546 5429 5134 5160 5070 4593 4580 4702 4798 4725 4646 4774 4890 4970 4963 4840 4746 4765 4782
Wind_Speed
nan nan nan nan nan nan nan nan nan nan nan nan nan nan nan nan nan nan nan nan nan nan nan nan nan nan nan nan nan nan nan 27 nan nan 20 16 16 18 19 20 20 20 21 19 18 20 18 14 11 11 11 11 13 11 11 9 8 7 5 6 7 6 6 6 8 7 7 6 7 5 4 5 3 2 5 5 4 2 3 3 5 6 6 7 7 8
nan nan nan nan nan nan nan nan nan nan nan nan nan nan nan nan nan nan nan nan nan nan nan nan nan nan nan nan nan nan nan nan nan 21 21 22 22 19 20 21 21 19 17 19 17 18 19 17 13 11 10 11 13 11 12 11 8 8 7 7 8 9 8 7 8 9 8 8 5 4 4 6 5 4 4 6 6 3 3 1 3 4 6 6 7 8
nan nan nan nan nan nan nan nan nan nan nan nan nan nan nan nan nan nan nan nan nan nan nan nan nan nan nan nan nan nan nan nan 26 22 21 23 24 20 20 22 21 21 19 19 18 18 18 20 17 11 9 10 12 11 13 12 11 9 8 10 9 9 10 9 9 10 7 8 6 5 5 6 7 8 7 6 6 4 3 1 2 4 5 6 7 8
nan nan nan nan nan nan nan nan nan nan nan nan nan nan nan nan nan nan nan nan nan nan nan nan nan nan nan nan nan nan nan nan nan 24 21 21 23 23 24 23 22 23 23 23 20 19 19 20 17 12 10 9 11 12 13 13 13 10 10 11 10 11 11 10 9 9 8 7 6 7 6 7 6 5 7 6 7 6 4 2 3 3 4 5 7 8
nan nan nan nan nan nan nan nan nan nan nan nan nan nan nan nan nan nan nan nan nan nan nan nan nan nan nan nan nan nan nan nan nan 27 20 15 17 19 23 22 22 24 24 24 21 20 19 21 18 14 12 10 11 12 13 13 13 12 10 9 10 12 12 11 9 7 8 7 7 7 8 6 8 6 6 7 6 6 5 1 1 2 2 5 6 8
nan nan nan nan nan nan nan nan nan nan nan nan nan nan nan nan nan nan nan nan nan nan nan nan nan nan nan nan nan nan nan nan nan 32 23 16 13 16 20 21 21 21 22 24 24 23 20 22 18 16 14 11 12 12 13 14 13 14 13 12 12 12 13 11 9 6 7 6 6 6 6 3 7 5 3 1 1 3 3 1 2 1 2 3 5 7
nan nan nan nan nan nan nan nan nan nan nan nan nan nan nan nan nan nan nan nan nan nan nan nan nan nan nan nan nan nan nan nan nan nan 30 22 12 10 14 19 20 20 18 20 23 23 21 21 20 18 15 12 12 12 14 15 14 16 15 13 13 11 12 10 9 7 8 9 8 5 4 3 4 3 1 2 3 1 3 4 2 1 1 4 5 7
nan nan nan nan nan nan nan nan nan nan nan nan nan nan nan nan nan nan nan nan nan nan nan nan nan nan nan nan nan nan nan nan 32 nan 33 28 17 13 14 17 18 20 19 19 22 23 22 22 22 21 18 13 12 15 15 15 15 16 16 14 14 12 11 9 8 7 7 9 8 7 5 5 4 3 1 1 3 5 3 3 2 1 2 4 6 7
nan nan nan nan nan nan nan nan nan nan nan nan nan nan nan nan nan nan nan nan nan nan nan nan nan nan nan nan nan nan nan nan 33 32 31 31 26 21 15 12 16 20 20 19 20 23 24 23 22 22 18 14 15 15 14 15 15 17 17 15 14 11 10 8 7 7 7 9 8 6 6 5 4 5 6 5 5 5 3 0 3 1 2 4 6 6
nan nan nan nan nan nan nan nan nan nan nan nan nan nan nan nan nan nan nan nan nan nan nan nan nan nan nan nan nan nan nan nan 31 33 31 31 29 26 16 11 15 17 18 18 19 23 25 23 23 22 19 16 14 14 15 16 17 17 18 15 12 11 8 8 7 7 8 8 7 6 4 3 4 5 7 7 4 3 4 3 1 2 3 3 4 6
nan nan nan nan nan nan nan nan nan nan nan nan nan nan nan nan nan nan nan nan nan nan nan nan nan nan nan nan nan nan nan nan nan 28 29 29 27 25 21 15 13 15 18 19 16 17 23 23 23 23 22 19 17 17 17 15 16 16 16 15 11 8 8 8 7 8 9 8 6 5 4 3 3 4 5 6 4 3 3 3 3 3 4 3 5 5
nan nan nan nan nan nan nan nan nan nan nan nan nan nan nan nan nan nan nan nan nan nan nan nan nan nan nan nan nan nan nan nan nan 26 28 30 26 23 21 14 11 16 17 20 16 15 20 23 22 21 21 21 19 19 18 15 16 15 15 14 10 7 6 7 7 8 9 8 7 6 5 4 3 4 3 3 3 4 3 3 4 3 2 3 4 5
nan nan nan nan nan nan nan nan nan nan nan nan nan nan nan nan nan nan nan nan nan nan nan nan nan nan nan nan nan nan nan nan nan nan 34 34 28 25 18 13 7 11 15 18 19 17 19 23 23 22 21 21 18 16 17 17 16 15 14 13 10 6 5 6 7 8 9 8 7 6 6 4 4 4 4 3 3 3 3 2 3 4 5 4 5 6
nan nan nan nan nan nan nan nan nan nan nan nan nan nan nan nan nan nan nan nan nan nan nan nan nan nan nan nan nan nan nan nan nan nan 37 36 34 28 20 9 6 10 13 17 22 23 19 20 23 22 21 22 19 16 16 16 16 14 12 12 10 6 4 5 6 6 8 8 7 6 5 5 5 5 4 3 3 3 3 3 4 6 7 7 9 9
nan nan nan nan nan nan nan nan nan nan nan nan nan nan nan nan nan nan nan nan nan nan nan nan nan nan nan nan nan nan nan nan nan nan nan 37 33 32 29 22 16 14 11 14 21 24 21 20 23 21 19 20 18 17 16 15 15 14 12 11 9 7 4 4 5 5 7 7 7 6 5 4 4 6 5 4 3 4 5 4 4 5 6 8 9 11
nan nan nan nan nan nan nan nan nan nan nan nan nan nan nan nan nan nan nan nan nan nan nan nan nan nan nan nan nan nan nan nan nan nan nan 41 30 32 33 29 23 16 13 14 19 23 23 19 20 19 17 17 18 18 17 15 14 13 11 10 9 7 6 4 4 4 6 7 6 6 5 5 5 5 6 5 5 5 6 6 6 5 6 8 9 10
nan nan nan nan nan nan nan nan nan nan nan nan nan nan nan nan nan nan nan nan nan nan nan nan nan nan nan nan nan nan nan nan nan nan nan 39 34 33 32 31 25 16 12 14 18 21 22 18 17 18 17 16 18 19 18 16 14 13 13 11 9 7 7 4 3 4 5 6 6 6 5 4 4 6 7 8 8 7 7 7 7 6 6 7 9 10
nan nan nan nan nan nan nan nan nan nan nan nan nan nan nan nan nan nan nan nan nan nan nan nan nan nan nan nan nan nan nan nan nan nan nan 36 41 34 32 31 24 15 11 15 18 20 21 18 17 16 14 16 18 19 19 17 16 16 15 12 10 8 6 4 4 4 5 5 6 6 6 5 6 6 7 8 9 8 7 7 7 7 6 6 7 8
nan nan nan nan nan nan nan nan nan nan nan nan nan nan nan nan nan nan nan nan nan nan nan nan nan nan nan nan nan nan nan nan nan nan nan nan 32 nan 32 31 28 20 15 16 17 19 18 16 16 15 13 15 17 18 19 20 20 19 17 14 11 7 6 6 5 4 5 5 5 4 5 7 6 5 6 7 8 9 9 9 8 8 7 7 7 7
nan nan nan nan nan nan nan nan nan nan nan nan nan nan nan nan nan nan nan nan nan nan nan nan nan nan nan nan nan nan nan nan nan nan nan nan 32 nan 28 30 30 23 16 16 17 16 15 15 15 15 16 17 19 19 19 21 20 18 16 14 10 9 9 8 5 4 4 5 5 4 4 5 6 6 6 7 8 8 10 10 11 10 10 9 9 9
nan nan nan nan nan nan nan nan nan nan nan nan nan nan nan nan nan nan nan nan nan nan nan nan nan nan nan nan nan nan nan nan nan nan nan nan nan nan 31 29 27 20 13 14 16 13 12 13 13 13 16 18 20 21 20 20 18 17 17 13 11 10 9 8 7 6 4 5 5 6 6 7 6 7 5 5 6 6 8 9 10 11 12 12 11 12
nan nan nan nan nan nan nan nan nan nan nan nan nan nan nan nan nan nan nan nan nan nan nan nan nan nan nan nan nan nan nan nan nan nan nan nan 27 29 29 28 24 18 12 12 14 12 10 11 11 12 15 18 20 22 21 19 19 17 13 11 10 9 8 8 7 6 5 4 4 6 6 7 6 5 5 5 6 6 6 7 9 11 12 13 14 14
nan nan nan nan nan nan nan nan nan nan nan nan nan nan nan nan nan nan nan nan nan nan nan nan nan nan nan nan nan nan nan nan nan nan nan nan 26 28 24 26 22 17 12 12 14 14 11 10 13 14 15 16 18 20 20 19 16 13 11 10 9 8 8 8 7 5 4 4 4 5 6 6 6 5 6 6 6 6 7 7 9 11 12 13 14 15
nan nan nan nan nan nan nan nan nan nan nan nan nan nan nan nan nan nan nan nan nan nan nan nan nan nan nan nan nan nan nan nan nan nan nan nan 24 26 25 26 24 16 14 13 13 15 14 13 14 15 13 11 12 15 19 17 14 12 10 8 7 7 7 7 6 6 5 5 5 6 7 6 6 7 7 7 6 7 8 9 10 12 13 14 15 16
nan nan nan nan nan nan nan nan nan nan nan nan nan nan nan nan nan nan nan nan nan nan nan nan nan nan nan nan nan nan nan nan nan nan nan nan 22 26 27 27 25 20 17 16 15 15 17 17 14 11 10 9 10 14 16 15 12 10 8 7 6 6 6 6 7 7 7 8 8 8 8 8 7 7 7 7 7 9 10 11 12 13 14 16 16 17
nan nan nan nan nan nan nan nan nan nan nan nan nan nan nan nan nan nan nan nan nan nan nan nan nan nan nan nan nan nan nan nan nan nan nan nan 24 23 24 26 25 22 19 20 17 16 17 17 12 10 9 8 9 12 14 13 10 8 6 6 6 7 6 6 7 7 8 8 9 9 10 9 9 9 9 9 9 10 11 13 14 15 15 16 17 17
nan nan nan nan nan nan nan 49 44 nan nan nan nan nan nan nan nan nan nan nan nan nan nan nan nan nan nan nan nan nan nan nan nan nan nan nan nan 26 24 22 21 22 23 20 16 15 17 17 13 10 9 7 7 9 11 11 10 8 8 7 8 8 8 8 8 8 8 9 9 8 9 10 10 10 10 11 11 11 13 14 15 17 17 16 16 17
nan nan nan nan nan nan nan nan nan nan nan nan nan nan nan nan nan nan nan nan nan nan nan nan nan nan nan nan nan nan nan nan nan nan 32 30 28 29 25 23 19 20 24 23 16 16 18 17 14 12 10 8 6 8 9 9 8 9 9 9 9 9 9 8 9 9 10 10 10 10 10 10 10 10 11 12 13 13 14 16 16 17 17 17 16 16
nan nan nan nan nan nan nan nan nan nan nan nan nan nan nan nan nan nan nan nan nan nan nan nan nan nan nan nan nan nan nan nan nan 36 31 29 30 28 27 24 20 19 25 24 20 13 15 17 15 12 10 7 7 8 10 8 7 7 9 9 9 9 10 11 11 11 12 12 12 12 11 11 10 10 12 13 14 15 16 17 18 17 17 17 16 15
nan nan nan nan nan nan nan nan nan nan nan nan nan nan nan nan nan nan nan nan nan nan nan 22 nan 25 nan nan nan nan nan nan 37 38 34 30 30 29 29 24 23 25 28 26 20 13 11 14 13 11 11 10 10 11 11 8 6 6 8 9 10 9 9 11 12 13 13 13 13 13 12 13 12 12 13 14 15 15 15 17 17 17 17 17 17 17
nan nan nan nan nan nan nan nan nan nan nan nan nan nan nan nan nan nan nan nan nan nan nan 20 23 nan nan nan nan nan nan nan nan nan nan 29 27 26 27 31 32 32 32 29 25 18 12 12 13 13 13 13 13 14 13 10 8 7 7 8 9 9 9 10 11 11 11 11 12 13 13 13 13 14 14 14 14 15 15 16 16 16 16 15 17 18
nan nan nan nan nan nan nan nan nan nan nan nan nan nan nan nan nan nan nan nan nan nan nan 25 nan nan nan nan nan nan nan nan nan nan nan nan 24 20 23 28 30 31 33 33 32 28 22 18 17 16 16 15 15 16 15 14 13 11 8 8 8 9 10 9 9 10 10 10 11 13 15 14 15 15 14 14 13 13 14 14 15 15 16 15 16 16
nan nan nan nan nan nan nan nan nan nan nan nan nan nan nan nan nan nan nan nan nan nan nan nan nan nan nan nan nan nan nan nan nan nan nan nan nan nan 26 21 23 26 30 31 31 29 26 24 21 19 18 18 19 18 17 18 17 14 11 11 11 12 10 9 9 10 11 12 14 15 15 16 17 17 16 15 13 12 13 14 13 14 15 16 16 16
nan nan nan nan nan nan nan nan nan nan nan nan nan nan nan nan nan nan nan nan nan nan nan nan nan 30 nan nan nan nan nan nan nan nan nan nan nan nan nan 29 28 29 32 32 31 30 27 26 25 24 23 23 22 20 19 19 18 16 15 15 16 14 12 10 10 11 12 15 16 17 18 18 18 18 18 17 15 14 13 13 13 13 14 15 16 14
nan nan nan nan nan nan nan nan nan nan nan nan nan nan nan nan nan nan nan nan nan nan nan nan 31 31 36 35 31 nan nan nan nan nan nan nan nan nan nan nan 31 29 29 28 30 29 27 27 27 27 27 25 24 23 24 21 19 20 19 18 17 16 15 14 13 14 15 16 17 19 21 21 20 19 18 18 18 16 15 14 13 13 13 14 14 13
nan nan nan nan nan nan nan nan nan nan nan nan nan nan nan nan nan nan nan nan nan nan nan nan nan nan nan nan nan nan nan nan nan nan nan 46 44 42 40 34 29 nan 24 27 29 28 29 31 29 27 25 24 23 22 22 20 21 22 19 19 19 18 17 16 15 15 17 18 19 21 22 24 23 21 20 19 19 18 17 17 17 16 16 15 14 13
nan nan nan nan nan nan nan nan nan nan nan nan nan nan nan nan nan nan nan 60 68 65 54 32 nan nan nan nan nan nan nan nan nan nan 49 47 43 40 38 36 38 40 37 33 32 29 26 28 26 22 23 25 27 26 23 20 21 20 20 19 19 20 19 18 16 16 19 20 21 23 24 24 25 25 23 22 20 19 19 19 18 18 20 18 15 14
nan nan nan nan nan nan nan nan nan nan nan nan nan nan nan nan nan nan nan 62 67 71 71 51 40 nan nan nan nan nan nan nan 51 50 50 48 43 41 40 39 38 39 38 34 30 28 25 23 22 22 24 24 24 25 26 24 20 19 20 17 18 21 21 19 17 18 21 22 23 24 25 25 26 26 25 24 22 22 22 21 18 18 20 19 17 14
nan nan nan nan nan nan nan nan nan nan nan nan nan nan nan nan nan nan 55 63 68 71 73 72 65 59 58 54 nan nan 58 57 52 52 50 50 47 44 43 41 40 40 37 33 29 25 21 19 19 20 20 20 21 20 23 24 24 22 18 18 18 19 20 18 18 21 22 24 25 26 26 26 26 26 26 25 24 24 24 21 18 18 19 18 17 13
nan nan nan nan nan nan nan nan nan nan nan nan nan nan nan nan nan nan 56 65 73 72 74 75 74 72 69 69 68 67 62 59 57 52 49 50 49 46 45 44 44 42 38 32 27 24 20 17 18 20 21 21 20 22 22 22 24 24 22 20 20 19 17 17 20 24 26 28 27 26 26 26 26 25 25 26 27 25 23 21 18 18 18 18 17 14
nan nan nan nan nan nan nan nan nan nan nan nan nan nan nan nan nan 57 56 65 70 70 74 74 75 74 72 71 67 66 65 62 59 57 55 52 51 50 49 48 46 44 41 38 33 29 26 23 22 21 21 21 21 21 22 23 23 21 22 23 22 17 16 21 28 29 29 29 28 28 27 27 26 25 25 27 28 27 25 22 20 19 18 18 17 14
nan nan nan nan nan nan nan nan nan nan nan nan nan nan nan nan nan 60 55 59 68 74 73 76 77 75 74 74 70 69 68 64 63 62 58 54 52 49 47 47 45 44 42 37 36 31 27 24 23 24 24 21 23 24 23 21 19 21 21 20 18 15 22 28 27 28 28 28 28 28 28 27 28 27 27 28 30 29 27 25 23 20 19 18 17 14
nan nan nan nan nan nan nan nan nan nan nan nan nan nan nan nan 68 nan 58 64 75 79 79 79 80 77 75 73 72 71 69 67 65 59 51 46 45 43 41 44 47 45 43 40 39 36 31 27 28 26 23 23 23 23 22 21 21 20 20 17 15 18 21 21 23 23 24 25 26 27 28 29 30 29 29 30 31 30 29 28 25 22 21 20 17 15
nan nan nan nan nan nan nan nan nan nan nan nan nan nan nan nan nan nan 66 66 71 77 79 77 79 79 nan 73 71 67 66 63 62 54 45 41 40 38 39 42 44 44 44 43 40 36 32 30 28 29 26 25 25 23 22 21 20 20 19 17 16 18 19 20 20 21 21 22 23 25 26 27 28 29 30 31 32 31 30 29 26 24 23 23 20 18
nan nan nan nan nan nan nan nan nan nan nan nan nan nan nan nan nan nan 70 69 69 72 74 75 79 79 nan nan 69 65 63 62 59 55 49 44 42 41 42 44 45 46 47 45 45 42 38 33 30 26 24 26 25 26 26 24 22 20 20 18 19 21 22 22 22 22 21 21 22 23 24 25 26 27 29 31 33 31 31 30 28 24 25 25 24 22
nan nan nan nan nan nan nan nan nan nan nan nan nan nan nan nan nan nan 76 72 nan 72 72 75 76 75 75 nan nan 69 65 60 59 56 53 50 49 46 44 44 45 45 45 47 46 44 40 37 34 33 33 32 33 33 28 29 30 29 23 23 25 25 24 25 23 22 21 22 22 23 24 24 24 25 27 30 31 31 31 31 28 26 26 27 26 24
nan nan nan nan nan nan nan nan nan nan nan nan nan nan nan nan nan nan nan 78 77 75 74 74 74 74 74 74 76 nan 69 66 64 60 55 53 53 52 50 47 45 46 46 49 48 46 43 41 38 37 35 35 34 33 32 31 30 29 28 29 28 26 25 26 24 23 23 23 24 24 25 25 25 25 26 28 30 30 31 31 29 28 28 28 28 27
nan nan nan nan nan nan nan nan nan nan nan nan nan nan nan nan nan nan nan nan 78 79 78 76 75 nan nan nan nan nan nan 71 67 63 59 57 55 54 53 51 49 49 47 46 46 46 45 43 41 39 36 36 35 35 34 32 31 30 30 30 32 30 29 28 27 26 26 26 26 25 26 27 27 28 27 28 29 28 28 29 30 29 29 30 31 31
nan nan nan nan nan nan nan nan nan nan nan nan nan nan nan nan nan nan nan nan nan 80 81 81 80 nan nan nan nan nan nan nan 67 61 59 55 54 52 52 50 48 47 46 45 44 46 46 44 44 41 40 38 36 36 34 33 32 30 31 31 32 31 31 31 30 30 30 29 29 27 27 27 28 29 32 36 38 39 38 33 31 34 37 37 34 33
nan nan nan nan nan nan nan nan nan nan nan nan nan nan nan nan nan nan nan nan nan nan nan nan 76 nan nan nan nan nan nan nan nan 63 60 58 54 50 49 50 49 48 47 46 45 43 43 46 44 43 42 39 37 37 35 34 33 33 32 32 32 32 33 33 33 32 31 30 30 28 28 28 30 33 34 34 35 38 41 45 48 43 39 38 39 46
nan nan nan nan nan nan nan nan nan nan nan nan nan nan nan nan nan nan nan nan nan nan nan nan nan nan nan nan nan nan nan nan nan nan 60 60 56 50 47 48 49 49 48 46 44 44 45 46 44 43 43 40 40 39 37 36 36 36 35 34 34 34 35 35 36 36 33 32 30 30 30 31 32 33 34 34 36 37 39 40 44 50 50 47 44 51
Wind_Direction
nan nan nan nan nan nan nan nan nan nan nan nan nan nan nan nan nan nan nan nan nan nan nan nan nan nan nan nan nan nan nan 287 nan nan 315 318 309 318 319 320 328 329 337 338 337 335 332 325 314 301 283 265 258 263 252 254 235 220 229 219 213 217 218 191 188 193 206 215 209 196 186 184 173 147 134 149 115 126 77 14 15 15 21 24 33 36
nan nan nan nan nan nan nan nan nan nan nan nan nan nan nan nan nan nan nan nan nan nan nan nan nan nan nan nan nan nan nan nan nan 320 322 326 322 317 320 320 323 323 324 332 332 337 333 326 317 300 284 276 270 265 264 269 247 220 223 215 211 211 210 208 197 204 209 206 206 218 193 197 198 194 157 150 147 129 167 340 6 12 15 23 30 38
nan nan nan nan nan nan nan nan nan nan nan nan nan nan nan nan nan nan nan nan nan nan nan nan nan nan nan nan nan nan nan nan 303 318 321 320 321 316 312 316 313 316 324 330 333 337 332 329 324 307 295 289 278 276 272 272 256 236 221 211 211 211 213 212 212 209 216 212 214 218 199 214 199 187 179 173 158 165 182 324 5 6 18 22 35 35
nan nan nan nan nan nan nan nan nan nan nan nan nan nan nan nan nan nan nan nan nan nan nan nan nan nan nan nan nan nan nan nan nan 307 308 313 320 315 312 313 316 318 320 328 332 336 333 328 328 310 300 285 270 269 263 267 266 245 225 212 217 215 216 216 217 212 213 224 225 218 213 207 217 194 181 178 165 163 195 329 12 25 21 22 27 31
nan nan nan nan nan nan nan nan nan nan nan nan nan nan nan nan nan nan nan nan nan nan nan nan nan nan nan nan nan nan nan nan nan 302 292 298 315 306 297 304 313 320 319 324 330 334 329 329 330 316 303 279 274 275 271 268 265 241 250 231 226 220 224 222 224 228 214 223 226 224 215 202 206 213 196 188 168 142 180 219 35 45 31 21 24 25
nan nan nan nan nan nan nan nan nan nan nan nan nan nan nan nan nan nan nan nan nan nan nan nan nan nan nan nan nan nan nan nan nan 304 302 310 307 284 290 304 306 315 317 321 328 334 330 329 323 313 307 292 278 277 269 266 263 253 249 243 232 221 222 229 233 238 216 216 232 232 225 212 205 226 209 139 88 99 156 93 168 187 40 14 22 24
nan nan nan nan nan nan nan nan nan nan nan nan nan nan nan nan nan nan nan nan nan nan nan nan nan nan nan nan nan nan nan nan nan nan 308 315 312 291 290 300 302 309 313 314 317 325 327 326 324 319 315 303 284 275 265 259 258 256 254 253 245 237 224 233 235 246 218 211 217 238 226 213 220 256 165 167 180 154 168 204 192 180 71 16 13 26
nan nan nan nan nan nan nan nan nan nan nan nan nan nan nan nan nan nan nan nan nan nan nan nan nan nan nan nan nan nan nan nan 285 nan 303 311 320 319 301 299 300 308 312 313 315 320 325 325 322 322 320 300 286 271 267 262 258 258 259 260 251 241 233 232 239 250 234 222 221 228 218 201 200 215 197 207 195 202 203 209 198 195 61 23 28 28
nan nan nan nan nan nan nan nan nan nan nan nan nan nan nan nan nan nan nan nan nan nan nan nan nan nan nan nan nan nan nan nan 290 289 294 301 317 330 321 302 313 313 312 314 313 317 324 326 320 316 315 298 276 269 273 267 262 255 256 260 256 256 248 243 262 253 251 234 236 239 223 209 182 202 205 212 217 218 226 281 188 89 38 41 38 34
nan nan nan nan nan nan nan nan nan nan nan nan nan nan nan nan nan nan nan nan nan nan nan nan nan nan nan nan nan nan nan nan 286 290 291 293 310 325 325 314 303 292 298 308 319 323 324 324 317 310 306 294 283 269 264 258 256 256 254 263 271 263 254 252 270 269 266 261 254 253 246 238 198 202 207 228 246 238 232 357 116 44 48 46 42 39
nan nan nan nan nan nan nan nan nan nan nan nan nan nan nan nan nan nan nan nan nan nan nan nan nan nan nan nan nan nan nan nan nan 282 275 280 299 319 333 326 293 283 297 305 312 319 318 316 314 303 311 316 289 269 270 266 266 262 262 268 278 278 258 262 281 282 291 284 283 281 286 283 245 226 224 236 262 273 252 351 14 22 35 26 25 28
nan nan nan nan nan nan nan nan nan nan nan nan nan nan nan nan nan nan nan nan nan nan nan nan nan nan nan nan nan nan nan nan nan 287 291 293 300 320 333 334 304 272 283 299 303 315 309 300 311 315 313 314 302 284 283 275 268 268 267 270 286 278 274 268 280 290 295 295 303 297 301 312 277 263 260 262 291 328 340 341 358 1 348 7 2 8
nan nan nan nan nan nan nan nan nan nan nan nan nan nan nan nan nan nan nan nan nan nan nan nan nan nan nan nan nan nan nan nan nan nan 309 310 309 314 329 354 320 279 291 303 309 306 305 308 314 321 320 317 304 291 293 288 278 274 272 281 289 295 287 275 287 303 305 305 311 311 320 314 277 287 298 303 290 313 344 312 335 318 346 337 337 357
nan nan nan nan nan nan nan nan nan nan nan nan nan nan nan nan nan nan nan nan nan nan nan nan nan nan nan nan nan nan nan nan nan nan 304 313 310 304 314 325 314 309 309 317 310 300 301 311 315 321 319 320 313 296 291 286 276 269 269 280 291 298 283 266 282 303 305 319 318 319 319 312 287 289 304 312 309 315 330 316 326 335 330 338 345 348
nan nan nan nan nan nan nan nan nan nan nan nan nan nan nan nan nan nan nan nan nan nan nan nan nan nan nan nan nan nan nan nan nan nan nan 307 301 297 301 304 314 312 307 303 297 295 304 311 313 315 318 317 311 294 286 277 273 270 267 274 289 286 280 281 285 293 320 313 318 316 318 316 289 286 290 309 302 306 324 324 322 328 319 332 341 347
nan nan nan nan nan nan nan nan nan nan nan nan nan nan nan nan nan nan nan nan nan nan nan nan nan nan nan nan nan nan nan nan nan nan nan 297 287 280 280 289 300 314 317 297 293 295 301 305 304 306 314 311 301 293 279 278 268 270 270 274 287 291 290 287 284 299 320 313 302 314 323 332 321 290 290 289 291 291 311 319 327 321 325 322 324 331
nan nan nan nan nan nan nan nan nan nan nan nan nan nan nan nan nan nan nan nan nan nan nan nan nan nan nan nan nan nan nan nan nan nan nan 287 288 278 279 289 300 314 315 302 300 294 296 292 295 305 312 307 303 295 288 285 279 276 264 263 266 268 258 272 292 295 301 301 303 317 327 327 327 323 315 310 318 318 314 320 323 322 317 306 302 310
nan nan nan nan nan nan nan nan nan nan nan nan nan nan nan nan nan nan nan nan nan nan nan nan nan nan nan nan nan nan nan nan nan nan nan 279 290 285 281 289 299 307 307 305 300 291 290 291 298 302 310 319 317 309 292 282 265 256 253 256 260 260 277 277 274 270 269 293 305 310 329 340 345 336 327 315 318 319 307 314 313 310 306 310 308 306
nan nan nan nan nan nan nan nan nan nan nan nan nan nan nan nan nan nan nan nan nan nan nan nan nan nan nan nan nan nan nan nan nan nan nan nan 278 nan 277 285 296 302 300 293 287 279 278 280 291 298 313 327 327 309 286 266 259 252 250 254 262 277 281 277 256 254 252 275 267 287 330 344 349 340 329 316 314 316 318 316 316 321 324 308 295 299
nan nan nan nan nan nan nan nan nan nan nan nan nan nan nan nan nan nan nan nan nan nan nan nan nan nan nan nan nan nan nan nan nan nan nan nan 286 nan 270 275 281 291 303 297 294 290 285 284 295 305 316 322 316 304 284 274 264 265 260 262 265 265 261 264 276 278 287 300 295 314 328 344 350 348 341 332 319 319 325 319 317 321 315 321 303 302
nan nan nan nan nan nan nan nan nan nan nan nan nan nan nan nan nan nan nan nan nan nan nan nan nan nan nan nan nan nan nan nan nan nan nan nan nan nan 275 276 276 291 299 294 295 298 292 283 286 299 307 309 301 295 286 271 271 267 261 267 273 287 301 315 326 320 322 312 332 337 347 350 349 354 342 337 332 329 327 317 312 310 311 304 310 303
nan nan nan nan nan nan nan nan nan nan nan nan nan nan nan nan nan nan nan nan nan nan nan nan nan nan nan nan nan nan nan nan nan nan nan nan 268 280 278 283 292 300 298 289 288 283 279 273 282 286 284 285 296 306 302 282 268 268 273 279 289 298 314 331 333 343 336 318 324 340 344 350 342 342 327 336 338 340 327 314 308 308 301 309 314 312
nan nan nan nan nan nan nan nan nan nan nan nan nan nan nan nan nan nan nan nan nan nan nan nan nan nan nan nan nan nan nan nan nan nan nan nan 255 271 276 272 283 294 281 278 279 276 269 268 266 271 287 298 312 320 312 289 282 288 292 293 300 319 338 337 341 335 305 302 309 334 330 330 333 325 329 337 329 339 327 314 311 305 313 313 308 313
nan nan nan nan nan nan nan nan nan nan nan nan nan nan nan nan nan nan nan nan nan nan nan nan nan nan nan nan nan nan nan nan nan nan nan nan 262 269 272 268 273 275 261 264 267 264 267 259 254 260 277 298 309 316 319 309 297 293 294 306 310 336 334 327 320 316 315 315 322 327 322 325 325 331 332 334 319 328 323 314 313 311 315 317 311 313
nan nan nan nan nan nan nan nan nan nan nan nan nan nan nan nan nan nan nan nan nan nan nan nan nan nan nan nan nan nan nan nan nan nan nan nan 261 275 280 279 278 286 266 265 258 258 257 253 256 274 296 302 303 315 325 322 308 306 316 309 316 318 319 315 308 314 320 320 327 325 326 328 322 327 332 332 318 328 323 318 316 314 319 318 320 319
nan nan nan nan nan nan nan nan nan nan nan nan nan nan nan nan nan nan nan nan nan nan nan nan nan nan nan nan nan nan nan nan nan nan nan nan 254 267 275 285 289 286 277 269 267 262 258 252 254 263 287 301 306 311 319 322 322 315 307 315 295 294 305 314 302 312 312 316 324 322 330 328 324 329 331 332 328 326 323 320 317 317 319 320 323 321
nan nan nan nan nan nan nan 182 185 nan nan nan nan nan nan nan nan nan nan nan nan nan nan nan nan nan nan nan nan nan nan nan nan nan nan nan nan 266 271 275 279 269 274 278 275 275 260 244 249 254 273 283 291 288 297 312 321 315 310 317 315 310 314 312 313 317 319 321 328 323 332 330 328 324 325 325 322 314 313 319 318 319 320 320 323 323
nan nan nan nan nan nan nan nan nan nan nan nan nan nan nan nan nan nan nan nan nan nan nan nan nan nan nan nan nan nan nan nan nan nan 255 254 247 245 263 271 277 272 285 292 283 270 264 256 247 245 244 255 265 270 278 297 306 304 304 320 324 320 321 319 331 334 335 335 340 341 340 332 326 322 319 312 311 313 315 315 316 315 312 314 323 324
nan nan nan nan nan nan nan nan nan nan nan nan nan nan nan nan nan nan nan nan nan nan nan nan nan nan nan nan nan nan nan nan nan 258 256 259 254 242 254 267 270 272 258 283 293 289 274 265 260 259 257 262 287 287 286 289 295 283 284 305 323 331 335 327 332 341 342 343 349 351 341 327 321 314 308 308 308 310 310 310 309 310 309 313 318 316
nan nan nan nan nan nan nan nan nan nan nan nan nan nan nan nan nan nan nan nan nan nan nan 230 nan 250 nan nan nan nan nan nan 247 251 250 247 248 244 239 248 257 257 259 280 287 286 276 273 273 274 274 281 299 294 278 278 293 296 290 300 318 329 321 316 330 336 340 346 347 340 334 329 322 316 312 310 309 307 303 299 304 310 312 313 317 318
nan nan nan nan nan nan nan nan nan nan nan nan nan nan nan nan nan nan nan nan nan nan nan 217 230 nan nan nan nan nan nan nan nan nan nan 245 250 251 246 244 243 245 253 266 275 277 265 260 256 254 263 277 288 288 278 275 285 287 286 281 297 310 304 304 315 327 336 345 337 330 329 327 325 318 317 314 306 298 297 298 297 304 309 310 313 318
nan nan nan nan nan nan nan nan nan nan nan nan nan nan nan nan nan nan nan nan nan nan nan 203 nan nan nan nan nan nan nan nan nan nan nan nan 241 241 246 250 248 252 254 256 263 267 266 259 251 253 261 269 276 278 273 269 273 278 288 284 289 292 286 286 299 318 326 329 321 324 331 333 331 327 323 312 309 302 297 292 294 301 307 310 311 309
nan nan nan nan nan nan nan nan nan nan nan nan nan nan nan nan nan nan nan nan nan nan nan nan nan nan nan nan nan nan nan nan nan nan nan nan nan nan 229 237 255 254 260 263 263 265 266 263 257 254 256 257 261 266 268 268 273 284 291 290 282 275 285 289 286 300 314 317 319 324 326 327 333 336 330 325 316 302 292 296 300 303 304 311 307 301
nan nan nan nan nan nan nan nan nan nan nan nan nan nan nan nan nan nan nan nan nan nan nan nan nan 215 nan nan nan nan nan nan nan nan nan nan nan nan nan 237 233 238 245 246 252 256 254 255 255 250 246 244 246 255 258 257 264 270 273 277 273 281 290 295 289 292 306 310 316 319 320 324 330 334 333 327 321 310 305 306 311 308 301 297 298 307
nan nan nan nan nan nan nan nan nan nan nan nan nan nan nan nan nan nan nan nan nan nan nan nan 215 214 225 226 232 nan nan nan nan nan nan nan nan nan nan nan 247 236 242 247 246 247 255 257 254 252 247 244 242 240 242 244 248 251 256 266 277 283 289 296 297 288 296 305 308 311 315 318 322 324 324 324 320 315 314 312 306 303 295 294 303 308
nan nan nan nan nan nan nan nan nan nan nan nan nan nan nan nan nan nan nan nan nan nan nan nan nan nan nan nan nan nan nan nan nan nan nan 231 232 236 234 231 238 nan 249 251 249 248 252 253 251 250 247 241 246 245 247 248 248 252 256 258 271 276 282 285 291 285 288 300 304 308 310 311 313 314 314 316 317 316 313 305 301 299 290 285 286 287
nan nan nan nan nan nan nan nan nan nan nan nan nan nan nan nan nan nan nan 195 193 186 182 202 nan nan nan nan nan nan nan nan nan nan 220 225 227 230 233 234 241 247 244 235 236 236 237 245 247 246 247 244 243 243 242 246 254 258 258 260 261 268 272 277 287 289 284 292 297 301 302 303 305 307 309 310 315 319 315 307 301 292 283 284 286 289
nan nan nan nan nan nan nan nan nan nan nan nan nan nan nan nan nan nan nan 192 185 184 185 191 214 nan nan nan nan nan nan nan 217 217 222 225 225 227 231 237 239 242 243 241 237 232 226 227 231 232 238 234 233 237 242 240 247 257 260 262 261 263 267 274 281 282 279 283 288 291 293 295 297 300 302 305 314 318 316 312 303 298 289 291 291 293
nan nan nan nan nan nan nan nan nan nan nan nan nan nan nan nan nan nan 197 191 179 182 187 196 204 206 212 217 nan nan 229 228 223 223 225 229 227 225 228 231 235 238 240 241 239 236 231 224 225 226 229 230 226 224 228 238 242 248 257 267 265 263 265 271 276 276 277 273 274 278 283 286 290 293 296 300 304 308 313 313 306 297 292 293 292 293
nan nan nan nan nan nan nan nan nan nan nan nan nan nan nan nan nan nan 191 184 178 179 187 194 203 207 211 219 221 222 226 231 231 231 228 228 229 228 228 228 227 229 232 234 235 233 231 230 230 223 219 220 221 217 217 222 233 241 247 250 259 266 267 271 271 267 264 265 268 272 275 278 283 285 289 291 291 296 303 298 294 298 301 299 295 290
nan nan nan nan nan nan nan nan nan nan nan nan nan nan nan nan nan 195 189 181 175 182 188 192 201 205 207 212 215 221 221 227 229 229 227 226 228 226 226 226 225 225 226 224 222 223 221 222 224 221 218 208 207 213 213 213 217 228 237 242 245 256 269 263 258 260 262 262 264 267 271 270 275 279 278 279 282 286 291 293 291 289 295 300 295 290
nan nan nan nan nan nan nan nan nan nan nan nan nan nan nan nan nan 199 188 176 177 185 189 192 199 204 206 209 212 217 223 225 227 228 226 224 226 226 225 225 225 225 225 222 219 223 223 219 221 222 214 209 212 213 210 206 206 209 219 231 237 242 243 249 255 257 258 260 260 262 264 265 264 268 269 269 272 276 282 284 286 284 287 289 290 290
nan nan nan nan nan nan nan nan nan nan nan nan nan nan nan nan 197 nan 190 184 185 187 190 193 197 202 205 208 212 217 221 222 224 226 226 222 220 220 221 225 226 225 224 224 223 222 222 221 220 223 220 214 213 209 207 206 202 202 203 207 214 229 241 248 253 258 260 260 257 257 258 257 261 261 259 262 267 271 276 278 282 281 279 283 284 283
nan nan nan nan nan nan nan nan nan nan nan nan nan nan nan nan nan nan 198 194 187 189 192 196 198 200 nan 209 214 216 220 222 223 223 224 220 216 214 218 224 227 226 226 225 227 227 225 224 225 222 218 222 216 211 208 205 203 203 203 200 213 235 246 252 256 257 260 260 259 258 257 257 258 257 256 260 263 266 270 274 279 279 276 276 277 277
nan nan nan nan nan nan nan nan nan nan nan nan nan nan nan nan nan nan 201 200 192 191 193 197 198 201 nan nan 213 218 222 222 222 222 226 224 221 215 215 218 222 225 225 226 227 231 231 227 221 217 221 227 220 216 213 212 213 210 208 216 235 244 248 251 254 255 257 260 260 263 262 261 260 258 255 255 260 262 264 269 274 276 271 270 271 274
nan nan nan nan nan nan nan nan nan nan nan nan nan nan nan nan nan nan 205 200 nan 196 198 199 199 203 207 nan nan 215 220 224 225 228 231 228 224 221 218 217 219 221 223 226 229 232 233 230 226 228 225 222 221 218 220 221 223 220 217 230 237 240 244 247 251 253 256 258 259 261 263 265 264 262 258 256 257 259 260 266 270 272 268 268 269 270
nan nan nan nan nan nan nan nan nan nan nan nan nan nan nan nan nan nan nan 206 201 200 201 202 203 205 208 212 213 nan 215 222 229 232 232 229 226 223 219 218 217 218 220 223 224 228 231 231 232 233 229 224 221 220 218 221 221 223 221 225 231 236 236 240 248 249 251 254 255 256 258 263 261 260 259 257 255 256 259 263 266 267 266 267 267 267
nan nan nan nan nan nan nan nan nan nan nan nan nan nan nan nan nan nan nan nan 210 209 208 207 206 nan nan nan nan nan nan 221 226 228 229 229 227 223 219 215 213 212 216 221 223 226 229 231 233 235 233 230 224 222 219 221 224 222 222 224 227 230 239 245 248 251 251 254 253 254 255 257 263 264 260 258 255 256 259 262 262 263 265 266 266 266
nan nan nan nan nan nan nan nan nan nan nan nan nan nan nan nan nan nan nan nan nan 216 215 214 212 nan nan nan nan nan nan nan 227 228 231 231 230 227 224 217 213 212 213 218 221 224 226 230 232 235 237 235 232 230 226 225 226 226 228 229 230 234 241 245 250 251 251 253 253 253 252 255 256 257 255 250 245 241 236 237 244 253 250 244 249 258
nan nan nan nan nan nan nan nan nan nan nan nan nan nan nan nan nan nan nan nan nan nan nan nan 216 nan nan nan nan nan nan nan nan 230 230 232 233 232 226 220 216 214 216 218 218 220 224 230 232 235 237 236 236 234 231 231 229 229 230 230 232 237 247 246 246 248 249 251 253 254 253 253 253 254 256 256 252 249 243 241 240 238 245 246 244 251
nan nan nan nan nan nan nan nan nan nan nan nan nan nan nan nan nan nan nan nan nan nan nan nan nan nan nan nan nan nan nan nan nan nan 228 230 232 233 229 222 220 217 216 217 219 219 226 229 230 233 236 235 237 237 235 234 233 233 232 233 234 236 246 249 247 245 245 249 255 257 256 255 255 255 254 255 254 251 253 249 241 238 239 243 249 257